Regional Weather Roundup
Issued by NWS

Home | Current Version | Previous Version | Graphics & Text | Print | Product List | Glossary On
Versions: 1 2 3 4 5 6 7 8 9 10 11 12 13 14 15 16 17 18 19 20 21 22 23 24 25 26 27 28 29 30 31 32 33 34 35 36 37 38 39 40 41 42 43 44 45 46 47 48 49 50
000
ASUS43 KMKX 101621
RWRWI

WISCONSIN REGIONAL WEATHER ROUNDUP
NATIONAL WEATHER SERVICE MILWAUKEE/SULLIVAN WI
1000 AM CST WED FEB 10 2016

NOTE: "FAIR" INDICATES FEW OR NO CLOUDS BELOW 12,000 FEET WITH NO
SIGNIFICANT WEATHER AND/OR OBSTRUCTIONS TO VISIBILITY.

WIZ001-002-006>008-014>016-023>028-101700-
NORTHWEST WISCONSIN

CITY           SKY/WX    TMP DP  RH WIND       PRES   REMARKS
SUPERIOR ARPT  CLOUDY     0  -8  70 W7        30.16R WCI -13
ASHLAND        CLOUDY     5  -3  69 NW9       30.12R WCI  -9
HAYWARD        CLOUDY     3  -5  69 NE8       30.07R WCI -10
SIREN          CLOUDY    -1  -6  78 NW5       30.13S WCI -11
CUMBERLAND     CLOUDY     0  -6  78 NW3       30.08S
RICE LAKE      CLOUDY     1  -5  74 W6        30.11R WCI -10
CHETEK         CLOUDY     1  -6  71 CALM      30.09S
LADYSMITH      CLOUDY     5  -4  66 N6        30.06R WCI  -6
EAU CLAIRE     CLOUDY     3  -5  69 NW6       30.11R WCI  -8
MENOMONIE      CLOUDY     4  -5  66 W6        30.13R WCI  -7
NEW RICHMOND   CLOUDY     0  -8  70 NE5       30.13R WCI -10
OSCEOLA        CLOUDY     1  -6  70 N6        30.16S WCI -10
$$

WIZ003>005-009-010-017-018-101700-
NORTH CENTRAL WISCONSIN

CITY           SKY/WX    TMP DP  RH WIND       PRES   REMARKS
MANITOWISH WTR CLOUDY     4  -4  69 NE9       29.98R WCI -10
ARBOR VITAE    CLOUDY     5  -4  66 N12G24    29.97R HAZE    WCI -11
WOODRUFF       CLOUDY     5  -4  66 N12G24    29.97R HAZE    WCI -11
RHINELANDER    CLOUDY     4  -7  60 N9G17     29.96S WCI -10
EAGLE RIVER    CLOUDY     4  -7  61 N13       29.95S WCI -13
LAND O LAKES   CLOUDY     4  -4  69 N12G18    29.96S WCI -12
PHILLIPS       CLOUDY     4  -4  69 N8        30.00R WCI  -9
TOMAHAWK       CLOUDY     5  -3  69 NW8       29.99R WCI  -9
MEDFORD        CLOUDY     3  -4  72 N8        30.00R WCI -11
MERRILL        CLOUDY     6  -4  62 N10G20    30.00S WCI  -8
$$

WIZ029-030-035-036-043>047-101700-
CENTRAL WISCONSIN

CITY           SKY/WX    TMP DP  RH WIND       PRES   REMARKS
WAUSAU         CLOUDY     8  -3  61 N10G17    29.99R WCI  -6
MOSINEE        CLOUDY     7  -2  66 N12       30.01R WCI  -9
MARSHFIELD     SUNNY      4  -6  63 NW13      30.01R WCI -13
STEVENS POINT  CLOUDY     6  -3  67 N8        30.02R WCI  -7
WAUPACA        CLOUDY    13  -3  50 N7        30.03R WCI   2
WAUTOMA        CLOUDY     9  -2  61 NW7       30.04R WCI  -2
WISC RAPIDS    MOSUNNY    6  -5  60 N12       30.05R WCI  -9
CAMP DOUGLAS   MOSUNNY    5  -2  72 W10       30.06R WCI -10
$$

WIZ011>013-019>022-031-037>040-048>050-101700-
NORTHEAST WISCONSIN

CITY           SKY/WX    TMP DP  RH WIND       PRES   REMARKS
ANTIGO         PTSUNNY    4  -6  63 N15       29.96R WCI -14
SHAWANO        CLOUDY    10  -5  50 N14       30.03R WCI  -5
OCONTO         MOSUNNY   10  -5  52 N14G21    30.02S WCI  -7
STURGEON BAY   SUNNY      9  -6  52 NW17      30.00S WCI -10
GREEN BAY      SUNNY      9  -4  55 NW17      30.01S WCI  -9
MANITOWOC      SUNNY     10  -2  58 N22G28    30.01R WCI -10
APPLETON       PTSUNNY    9  -6  52 NW12G18   29.99S WCI  -6
CLINTONVILLE   PTSUNNY   12  -6  44 N10G16    30.02S WCI  -1
OSHKOSH        MOSUNNY    9  -4  55 N20       30.01S WCI -10
$$

WIZ032>034-041-042-053>061-101700-
SOUTHWEST WISCONSIN

CITY           SKY/WX    TMP DP  RH WIND       PRES   REMARKS
LA CROSSE      CLOUDY     5  -5  63 NW9       30.13R WCI  -9
SPARTA         SUNNY      6  -3  66 N6        30.10R WCI  -5
VIROQUA        CLOUDY     4  -4  68 NW6       30.05S WCI  -7
BOSCOBEL       CLOUDY    10  -3  55 NW7       30.12R WCI  -1
PRAIRIE DU CHI CLOUDY     7  -5  57 NW6       30.13R WCI  -3
PLATTEVILLE    MOSUNNY    7  -2  66 NW9       30.07S WCI  -7
$$

WIZ056-057-062-063-064-067-068-101700-
SOUTH CENTRAL WISCONSIN

CITY           SKY/WX    TMP DP  RH WIND       PRES   REMARKS
REEDSBURG      SUNNY      6  -4  64 NW7       30.06R WCI  -6
BARABOO/DELLS  SUNNY      7  -4  60 NW8       30.04R WCI  -6
LONE ROCK      NOT AVBL
MINERAL POINT  SUNNY      9  -4  56 NW9       30.04R WCI  -5
MADISON        MOSUNNY    8  -3  61 NW10      30.04S WCI  -6
MIDDLETON      SUNNY     10   0  63 NW9       30.05R WCI  -3
WATERTOWN      MOSUNNY   11   1  65 W9        30.02S WCI  -2
MONROE         SUNNY     10   0  61 NW9       30.03S WCI  -2
JANESVILLE     MOSUNNY   12   1  62 NW12      30.04S WCI  -2
$$

WIZ051-052-058>065-066-070>072-101700-
SOUTHEAST WISCONSIN

CITY           SKY/WX    TMP DP  RH WIND       PRES   REMARKS
MILWAUKEE      MOSUNNY   12  -2  53 NW10      30.02R WCI  -1
WAUKESHA       PTSUNNY    9  -2  61 NW12G23   30.01R WCI  -6
MILWAUKEE/TIMM PTSUNNY   10  -2  56 N14       30.02R WCI  -5
RACINE         CLOUDY    13   0  56 NW13G20   30.03R WCI  -2
BURLINGTON     CLOUDY    10  -1  60 NW13G20   30.02S WCI  -5
KENOSHA        PTSUNNY   13   1  59 NW12      30.01S WCI  -1
FOND DU LAC    MOSUNNY   10  -3  55 N14G22    30.02R WCI  -6
SHEBOYGAN      SUNNY     10  -3  55 NW15      30.00R WCI  -7
WEST BEND      SUNNY     10  -4  52 NW14G21   30.00S WCI  -5
JUNEAU         CLOUDY     8   0  68 NW9       30.02S WCI  -5
$$

LSZ147-162-101700-
LAKE SUPERIOR

STATION/POSITION TIME  TEMP    WIND        PRES    WAVE
                       AIR SEA DIR/SP/G            HT/PER
                 (UTC) (F)     (DEG/KT/KT) (MB)    (FT/S)
DEVILS ISLAND    1600    5     360/ 11/ 15 1022.2R
PORT WING        1340    5      10/ 10/ 14 1020.0
SAXON HARBOR     1500    9                 1018.6
$$

LMZ867-665-643>646-101700-
LAKE MICHIGAN

STATION/POSITION TIME  TEMP    WIND        PRES    WAVE
                       AIR SEA DIR/SP/G            HT/PER
                 (UTC) (F)     (DEG/KT/KT) (MB)    (FT/S)
CHAMBERS ISLAND  1500   10     300/ 18/ 23 1014.9R
ALGOMA LAKESHORE 1511          340/ 14/ 21   N/A
KEWAUNEE LAKESHO 1500    8     320/ 12/ 19 1014.8R
SHEBOYGAN LAKESH 1600   10     330/ 16/ 19 1017.8R
PORT WASHINGTON  1540   11     320/ 10/ 18 1017.3S
MILWAUKEE LAKESH 1510   12     330/ 12/ 17   N/A
KENOSHA   LAKESH 1600   12     340/ 10/ 16 1016.6S
$$

TC  - TEMPERATURE IN CELSIUS
VSB - VISIBILITY IN STATUTE MILES
WCI - WIND CHILL INDEX
HX  - HEAT INDEX




USA.gov is the U.S. government's official web portal to all federal, state and local government web resources and services.